Temp
59 60 60 59 58 58 56 56 55 55 55 54 53 52 51 50 50 50 50 49 49 49 50 51 51 52 52 52 52 51 51 50 46 51 55 56 54 54 56 58 59 59 59
59 60 59 59 58 57 56 56 55 53 53 52 52 51 51 49 48 48 48 49 49 49 50 50 51 53 50 51 50 48 49 49 46 43 48 51 51 52 54 54 56 58 58
56 55 56 56 56 54 54 53 52 51 50 50 50 49 48 48 47 48 48 48 48 49 50 50 51 49 48 47 47 47 46 47 46 43 43 48 50 52 51 52 53 54 57
55 52 51 52 53 52 52 51 50 50 49 49 48 48 47 47 47 48 48 47 48 49 49 49 49 48 47 46 47 46 46 44 45 44 43 44 45 48 49 48 48 51 52
53 52 50 51 51 51 51 50 50 49 48 48 47 47 47 47 48 48 46 46 46 46 47 47 48 50 49 48 45 45 45 44 43 42 41 42 42 43 43 46 45 47 47
52 50 51 50 49 49 48 48 47 47 46 47 46 45 44 46 44 47 46 46 46 46 45 45 49 48 47 46 46 47 47 43 42 41 40 40 41 42 44 43 43 43 42
50 50 50 50 48 47 47 47 46 45 45 44 45 45 42 44 43 43 46 45 45 45 45 45 46 47 46 45 45 46 47 46 47 43 41 41 41 43 44 43 44 44 44
48 48 49 48 46 45 45 44 44 44 43 43 43 43 42 44 43 42 44 44 45 45 46 45 45 44 44 43 43 45 45 46 46 45 44 44 45 46 46 47 46 46 48
46 46 46 46 44 44 42 41 42 43 44 44 43 43 42 43 42 42 43 43 44 44 46 47 45 43 42 41 42 42 43 46 47 47 46 45 44 45 47 49 47 46 45
43 43 43 43 42 40 40 40 40 42 43 45 43 42 43 43 42 42 43 43 44 44 47 46 45 42 40 40 41 42 40 42 42 44 45 47 48 49 49 50 49 46 46
43 42 41 40 39 39 38 39 39 40 40 40 41 43 43 43 43 42 42 44 44 43 43 43 44 41 40 40 40 42 40 42 43 43 44 45 47 47 49 49 49 49 47
41 39 38 38 40 39 38 38 38 38 39 38 39 41 43 42 43 42 40 41 44 42 42 43 43 40 39 39 40 38 40 42 44 41 41 41 42 44 48 48 49 50 50
39 37 37 38 38 38 37 37 37 38 37 37 38 38 40 42 42 42 41 40 43 44 44 42 40 39 39 40 39 38 40 42 41 38 37 39 42 45 49 48 49 50 50
37 37 37 37 37 38 38 38 38 37 37 37 37 36 38 40 41 42 42 42 43 44 43 41 40 39 39 39 40 40 40 40 38 36 37 41 44 45 47 47 45 46 46
37 37 36 36 36 36 36 37 37 37 38 38 37 37 38 38 39 40 40 40 41 41 42 41 37 36 36 36 37 38 38 38 37 38 38 39 41 42 46 48 46 45 43
36 36 36 36 37 37 38 38 40 40 40 39 39 39 42 39 39 39 39 38 38 38 39 36 35 34 33 33 33 34 36 35 36 37 38 38 38 41 44 47 46 44 43
36 37 37 38 38 38 39 39 39 41 41 39 38 39 38 38 38 38 39 38 37 38 36 35 33 33 32 32 32 32 32 34 36 36 37 38 39 40 44 45 46 45 44
39 38 37 37 38 38 38 38 38 38 37 38 39 39 38 38 37 37 37 38 36 36 35 33 32 32 31 30 31 31 32 33 33 35 36 37 38 40 41 43 44 44 44
39 38 37 38 38 37 37 37 36 36 35 35 38 38 38 37 37 37 37 36 34 33 33 33 32 31 31 30 30 30 31 32 32 33 35 36 38 40 39 43 43 41 41
39 38 37 38 38 38 37 37 36 36 35 35 35 35 37 38 36 36 36 35 34 33 33 32 32 31 31 30 30 30 30 32 33 33 33 35 37 40 39 42 42 42 42
38 38 37 37 37 37 37 36 36 36 35 35 34 35 30 36 36 35 35 34 33 33 32 31 31 31 30 31 31 30 30 31 32 33 33 35 37 38 41 43 43 43 43
38 37 38 37 36 36 36 36 36 36 35 35 35 35 31 36 36 36 35 35 35 34 33 32 31 31 31 30 30 29 29 29 30 31 33 34 37 39 41 42 43 44 43
38 37 36 36 36 35 35 35 36 35 35 35 35 35 35 34 35 35 35 35 35 34 34 33 32 31 32 32 32 31 29 28 30 32 33 35 36 36 40 42 42 42 42
38 37 36 36 36 35 35 35 35 34 35 35 35 34 34 34 34 34 34 34 34 34 34 33 32 32 32 32 32 32 31 30 33 33 34 35 36 37 39 41 42 42 41
38 37 37 36 35 35 35 35 34 34 35 35 34 34 34 34 33 33 33 33 33 33 32 32 32 32 32 32 31 32 30 29 32 31 35 37 38 38 38 40 41 42 41
36 36 35 35 34 35 35 34 34 34 34 34 34 34 34 33 33 32 32 32 32 32 32 32 32 32 32 32 31 29 29 29 30 29 35 37 37 38 38 38 40 41 41
MSLP
1009.25 1010.17 1010.46 1011.38 1012.34 1012.82 1013.37 1014.10 1015.20 1016.05 1016.59 1016.60 1016.89 1016.83 1017.27 1017.43 1017.85 1018.06 1017.50 1017.30 1017.03 1016.64 1016.39 1016.06 1015.87 1015.70 1015.72 1015.65 1015.49 1014.75 1014.08 1013.27 1012.11 1010.53 1010.18 1009.50 1008.91 1008.43 1007.54 1006.95 1006.19 1005.46 1004.78
1010.00 1010.39 1011.44 1012.10 1012.93 1013.62 1014.43 1015.31 1016.26 1016.80 1017.30 1017.44 1017.54 1018.05 1018.30 1018.23 1018.07 1017.57 1017.57 1017.68 1017.23 1017.10 1016.51 1016.17 1016.11 1016.11 1015.97 1015.77 1015.37 1014.77 1014.00 1013.50 1012.74 1011.44 1010.57 1009.67 1009.01 1008.34 1007.62 1006.93 1006.05 1005.38 1004.70
1010.89 1011.60 1012.40 1013.05 1013.97 1014.92 1015.62 1016.41 1016.91 1017.06 1017.38 1017.79 1018.06 1018.20 1018.15 1018.10 1018.33 1018.36 1018.56 1017.75 1017.65 1017.21 1016.97 1016.74 1016.43 1016.51 1016.26 1016.12 1015.71 1014.80 1014.11 1013.36 1012.89 1012.15 1010.89 1010.04 1009.14 1008.36 1007.49 1006.69 1005.94 1005.40 1004.52
1011.90 1012.69 1013.48 1014.40 1015.13 1015.77 1016.56 1017.08 1017.28 1017.64 1018.00 1018.28 1018.56 1018.85 1018.96 1019.22 1019.08 1019.06 1018.40 1018.27 1018.27 1017.65 1017.17 1017.06 1017.14 1017.09 1016.89 1016.30 1015.45 1014.73 1013.96 1013.34 1012.68 1011.97 1011.14 1010.23 1009.44 1008.34 1007.65 1006.75 1005.73 1005.07 1004.11
1012.48 1013.79 1014.84 1015.58 1016.25 1016.70 1017.22 1017.76 1018.17 1018.47 1018.83 1018.97 1019.12 1019.20 1019.41 1019.30 1019.37 1019.00 1018.92 1018.64 1018.08 1017.90 1017.81 1017.78 1017.54 1017.35 1016.94 1016.42 1015.78 1014.85 1014.21 1013.45 1012.70 1011.99 1011.34 1010.44 1009.38 1008.44 1007.80 1006.84 1005.83 1004.89 1004.04
1013.35 1014.71 1015.68 1016.22 1016.72 1017.39 1017.96 1018.42 1018.80 1019.03 1019.21 1019.44 1019.79 1020.02 1020.12 1020.14 1020.04 1019.45 1019.14 1018.77 1018.50 1018.44 1018.19 1017.91 1017.53 1017.26 1016.77 1016.25 1015.70 1015.03 1014.39 1013.53 1012.76 1012.14 1011.35 1010.62 1009.56 1008.73 1007.72 1006.82 1005.94 1004.85 1003.55
1014.64 1015.93 1016.65 1017.40 1017.66 1018.43 1018.75 1019.17 1019.43 1019.66 1020.05 1020.31 1020.38 1020.33 1020.41 1020.39 1020.05 1019.71 1019.22 1018.96 1018.75 1018.56 1018.35 1018.29 1017.72 1017.44 1017.07 1016.30 1015.49 1014.71 1013.84 1013.24 1012.64 1012.20 1011.42 1010.47 1009.59 1008.53 1007.63 1006.60 1005.79 1004.96 1004.00
1015.92 1016.86 1017.57 1017.94 1018.42 1019.04 1019.42 1019.66 1020.01 1020.37 1020.54 1020.64 1020.70 1020.73 1020.75 1020.70 1020.29 1019.80 1019.42 1019.26 1019.01 1018.73 1018.68 1018.49 1018.20 1017.88 1017.33 1016.68 1015.63 1014.50 1013.57 1012.86 1012.27 1011.87 1011.22 1010.22 1009.34 1008.25 1007.31 1006.19 1005.47 1004.77 1003.76
1017.19 1017.90 1018.40 1018.65 1019.44 1019.92 1020.25 1020.65 1020.87 1020.93 1020.97 1021.02 1021.16 1021.20 1021.07 1021.00 1020.55 1020.21 1019.80 1019.54 1019.25 1018.98 1018.86 1018.75 1018.64 1018.20 1017.58 1016.75 1016.00 1014.83 1013.68 1012.48 1011.67 1011.20 1010.62 1009.74 1008.83 1007.79 1006.92 1005.86 1005.18 1004.57 1003.65
1018.30 1018.82 1019.09 1019.70 1020.27 1020.75 1021.19 1021.31 1021.49 1021.54 1021.54 1021.46 1021.54 1021.49 1021.46 1021.42 1021.16 1020.71 1020.19 1019.95 1019.50 1019.27 1019.11 1018.90 1018.65 1018.24 1017.80 1017.12 1016.34 1015.63 1014.56 1013.56 1012.65 1011.29 1010.18 1009.23 1008.56 1007.64 1006.73 1006.02 1005.32 1004.63 1003.92
1019.11 1019.39 1020.06 1020.69 1021.23 1021.54 1021.79 1021.94 1022.09 1022.10 1022.12 1022.08 1022.02 1022.13 1022.07 1021.90 1021.61 1021.06 1020.70 1020.50 1020.20 1019.83 1019.65 1019.27 1018.85 1018.46 1017.99 1017.53 1016.89 1016.36 1015.79 1014.43 1013.03 1012.11 1011.08 1009.97 1008.85 1007.89 1006.92 1006.19 1005.44 1004.64 1004.08
1019.82 1020.54 1021.23 1021.59 1021.90 1022.28 1022.47 1022.81 1022.82 1022.84 1022.78 1022.84 1022.70 1022.65 1022.56 1022.36 1021.92 1021.56 1021.39 1021.05 1020.64 1020.30 1020.26 1019.98 1019.38 1018.89 1018.39 1017.76 1017.17 1016.65 1015.59 1014.48 1013.53 1012.64 1011.68 1010.62 1009.58 1008.42 1007.31 1006.61 1005.69 1004.91 1004.23
1020.91 1021.59 1022.17 1022.58 1022.95 1023.13 1023.17 1023.27 1023.36 1023.42 1023.47 1023.60 1023.49 1023.48 1023.29 1022.87 1022.45 1022.14 1021.82 1021.50 1021.11 1020.78 1020.83 1020.57 1019.85 1019.24 1018.74 1017.95 1017.54 1016.95 1015.97 1015.13 1014.42 1013.54 1012.80 1011.64 1010.57 1009.12 1007.81 1006.71 1005.96 1005.36 1004.76
1021.85 1022.58 1023.03 1023.33 1023.79 1023.83 1023.82 1023.96 1023.99 1024.23 1024.30 1024.34 1024.33 1024.21 1023.99 1023.62 1023.18 1022.74 1022.33 1021.96 1021.65 1021.37 1021.27 1020.92 1020.35 1019.93 1019.42 1018.94 1018.00 1017.43 1016.94 1016.30 1015.70 1014.91 1013.75 1012.38 1010.94 1009.37 1008.10 1007.49 1006.70 1005.89 1005.23
1022.73 1023.43 1023.90 1024.25 1024.34 1024.47 1024.55 1024.81 1024.86 1025.08 1025.13 1025.09 1025.08 1025.04 1024.75 1024.42 1024.27 1023.93 1023.40 1022.85 1022.44 1022.20 1021.89 1021.29 1020.92 1020.34 1019.94 1019.34 1018.91 1018.54 1017.79 1017.02 1016.17 1015.34 1014.30 1013.05 1011.65 1010.35 1009.00 1008.05 1007.48 1006.83 1006.14
1023.63 1024.38 1024.62 1024.68 1024.93 1024.97 1025.10 1025.31 1025.31 1025.32 1025.33 1025.36 1025.41 1025.36 1025.28 1025.19 1024.89 1024.58 1024.20 1023.67 1023.08 1022.68 1022.31 1022.11 1022.23 1021.93 1021.62 1021.21 1020.48 1019.70 1018.86 1018.09 1017.37 1016.39 1015.15 1014.07 1012.85 1011.48 1010.00 1008.80 1008.19 1007.62 1007.09
1024.29 1024.73 1024.96 1025.07 1025.29 1025.43 1025.58 1025.77 1025.76 1025.75 1025.67 1025.98 1026.15 1026.06 1026.08 1025.96 1025.46 1025.44 1024.81 1024.43 1024.05 1023.36 1023.36 1023.58 1023.57 1023.24 1022.97 1022.54 1021.86 1021.07 1020.18 1019.40 1018.47 1017.31 1016.16 1015.05 1013.85 1012.43 1011.01 1009.90 1009.01 1008.47 1007.85
1024.87 1025.14 1025.43 1025.70 1025.85 1026.09 1026.26 1026.35 1026.34 1026.52 1026.84 1027.11 1027.06 1027.05 1026.98 1026.54 1026.46 1026.04 1025.71 1024.84 1024.56 1024.56 1024.88 1024.92 1024.67 1024.40 1024.12 1023.64 1022.86 1021.98 1021.05 1020.04 1019.13 1018.22 1017.09 1016.00 1014.79 1013.61 1012.26 1011.10 1010.16 1009.42 1008.73
1025.40 1025.84 1026.12 1026.35 1026.54 1026.77 1026.92 1027.08 1027.42 1027.65 1027.91 1028.15 1027.94 1027.62 1027.61 1027.32 1027.13 1026.87 1026.54 1026.19 1026.43 1026.37 1026.23 1025.96 1025.85 1025.48 1025.02 1024.39 1023.74 1022.98 1022.16 1021.23 1020.36 1019.23 1018.16 1016.96 1015.65 1014.53 1013.45 1012.37 1011.38 1010.52 1009.75
1026.06 1026.48 1026.68 1027.00 1027.28 1027.44 1027.65 1027.91 1028.17 1028.31 1028.56 1028.85 1028.70 1028.90 1028.49 1027.82 1027.55 1027.65 1027.70 1027.65 1027.58 1027.52 1027.34 1027.07 1026.84 1026.38 1025.78 1025.07 1024.37 1023.64 1022.76 1021.75 1020.88 1020.05 1019.10 1017.92 1016.70 1015.58 1014.56 1013.36 1012.46 1011.49 1010.81
1026.50 1026.99 1027.30 1027.61 1027.88 1028.14 1028.52 1028.75 1029.05 1029.12 1029.35 1029.59 1030.03 1029.56 1029.22 1028.91 1028.86 1028.73 1028.65 1028.62 1028.55 1028.45 1028.25 1028.05 1027.63 1027.10 1026.50 1025.84 1025.15 1024.39 1023.63 1022.91 1022.04 1021.00 1020.02 1018.92 1017.73 1016.55 1015.49 1014.36 1013.49 1012.78 1012.14
1027.11 1027.42 1027.82 1028.24 1028.64 1028.95 1029.28 1029.55 1029.53 1029.76 1029.81 1030.06 1030.28 1030.19 1029.86 1029.77 1029.69 1029.48 1029.39 1029.37 1029.28 1029.24 1029.01 1028.76 1028.32 1027.88 1027.36 1026.68 1025.99 1025.30 1024.63 1023.88 1022.97 1021.97 1020.88 1019.84 1018.76 1017.61 1016.40 1015.35 1014.42 1013.67 1013.01
1027.56 1028.09 1028.54 1028.95 1029.32 1029.75 1030.02 1030.30 1030.75 1030.54 1030.63 1030.64 1030.67 1030.72 1030.65 1030.60 1030.52 1030.38 1030.16 1029.95 1029.82 1029.68 1029.44 1029.19 1028.83 1028.39 1027.95 1027.39 1026.77 1026.20 1025.61 1024.87 1023.99 1023.05 1021.88 1020.65 1019.61 1018.73 1017.57 1016.46 1015.66 1014.78 1014.09
1028.31 1028.75 1029.17 1029.58 1029.92 1030.42 1030.80 1030.86 1031.14 1031.19 1031.08 1031.35 1031.30 1031.40 1031.40 1031.33 1031.22 1031.05 1030.91 1030.65 1030.41 1030.24 1030.02 1029.71 1029.40 1029.01 1028.42 1027.77 1027.20 1026.71 1026.23 1025.63 1024.50 1023.49 1022.56 1021.44 1020.44 1019.40 1018.47 1017.51 1016.71 1015.97 1015.23
1028.90 1029.42 1029.87 1030.16 1030.46 1030.99 1031.23 1031.50 1031.60 1031.55 1031.71 1031.82 1031.87 1031.81 1031.94 1031.82 1031.72 1031.56 1031.44 1031.26 1030.98 1030.75 1030.56 1030.32 1029.98 1029.55 1029.05 1028.48 1027.91 1027.30 1026.68 1025.87 1024.92 1024.09 1023.02 1022.07 1021.14 1020.20 1019.41 1018.63 1017.81 1016.85 1016.06
1029.46 1029.87 1030.33 1030.69 1031.02 1031.29 1031.49 1031.73 1032.18 1031.97 1032.03 1032.24 1032.37 1032.27 1032.29 1032.29 1032.21 1032.08 1031.90 1031.71 1031.51 1031.26 1031.06 1030.81 1030.47 1030.03 1029.51 1028.95 1028.50 1027.83 1026.93 1026.15 1025.29 1024.53 1023.60 1022.71 1021.88 1021.14 1020.39 1019.64 1018.79 1017.83 1017.16
Wind_Speed
12 11 15 13 12 13 13 12 11 10 7 9 8 9 9 9 5 1 3 6 6 7 7 8 8 7 6 6 5 7 7 7 11 11 11 12 14 12 13 12 13 12 11
13 15 15 14 14 14 13 13 10 11 8 9 9 8 7 6 6 9 8 7 8 8 8 9 9 7 6 7 8 10 9 10 9 15 13 11 14 13 13 13 12 10 11
15 15 14 14 13 13 12 11 10 11 10 9 8 9 10 11 10 8 6 8 8 8 8 8 9 10 10 10 10 10 9 8 9 9 11 10 11 10 13 11 10 11 11
16 15 16 13 12 12 11 10 11 10 10 9 9 9 10 8 8 6 7 7 6 8 10 10 9 10 10 12 11 11 10 10 9 8 9 10 9 12 10 9 9 9 11
18 16 13 13 12 11 12 11 10 10 9 8 9 10 8 9 8 8 7 7 9 10 10 9 7 10 15 14 9 10 11 9 8 8 8 9 9 10 10 9 10 10 10
17 15 12 12 12 12 10 10 10 9 9 9 9 9 9 8 13 13 8 7 9 9 9 9 9 12 15 18 18 16 13 9 10 7 8 9 12 11 9 10 10 9 7
17 13 12 11 13 10 10 10 9 9 7 8 8 9 10 9 16 14 14 8 8 8 9 8 9 9 13 14 16 15 13 14 12 10 11 11 12 14 13 12 11 10 9
15 13 12 12 12 10 10 9 9 7 8 7 8 8 8 9 17 16 13 9 7 7 7 8 11 12 13 16 15 13 13 11 10 9 10 12 11 13 11 9 7 8 9
14 12 11 12 11 9 10 8 5 6 7 8 8 9 9 9 17 16 10 8 8 8 7 8 11 12 19 21 14 15 15 14 17 20 17 17 16 16 14 8 6 7 6
12 12 12 11 10 10 8 8 5 6 7 7 8 9 13 9 15 14 10 5 8 8 7 9 13 17 20 20 13 14 15 14 14 16 15 16 16 15 17 9 7 7 6
12 13 12 11 10 9 8 6 6 7 8 8 8 8 9 10 10 16 16 8 7 7 8 9 9 21 20 18 17 13 13 14 14 11 11 11 12 12 10 11 10 6 4
12 12 11 10 8 7 9 7 8 7 8 8 8 7 7 8 15 15 16 13 11 8 9 8 9 17 17 16 15 22 19 15 10 10 11 11 12 12 11 11 11 11 5
13 12 11 10 9 8 8 8 7 8 8 7 7 7 7 7 8 15 14 15 13 8 8 11 15 15 16 12 20 21 18 12 11 10 10 10 11 13 10 12 10 11 7
13 11 9 10 9 9 8 7 8 7 7 7 7 7 7 7 8 9 8 7 11 10 10 9 14 15 15 13 14 14 11 11 11 10 10 11 11 11 9 9 8 9 7
12 10 9 7 8 8 7 6 7 5 6 6 6 6 7 8 8 11 11 8 7 9 8 8 9 11 12 12 12 12 11 12 12 12 11 12 11 12 12 9 9 8 8
11 7 6 6 5 5 6 6 9 10 11 11 11 9 7 12 14 13 14 19 16 11 8 11 10 10 11 11 12 12 12 15 12 11 11 11 11 12 11 10 9 9 9
9 7 6 7 5 5 5 5 6 7 15 19 16 18 18 17 19 18 13 12 20 12 11 10 10 10 11 10 11 11 12 11 13 11 11 12 12 12 14 11 11 10 10
9 14 7 6 6 6 6 6 6 7 7 6 12 12 15 19 20 19 17 10 12 14 10 10 10 10 10 10 11 11 12 11 12 12 11 12 12 12 12 13 12 12 9
8 7 6 7 7 8 7 8 7 8 7 6 6 8 11 13 15 18 18 11 10 10 10 10 10 10 10 10 10 10 11 11 11 11 11 11 12 11 12 12 11 13 11
7 11 8 6 6 7 7 7 7 8 8 7 7 6 5 8 10 10 10 10 9 9 10 10 10 10 10 11 11 10 10 12 12 11 11 11 11 11 11 12 12 11 11
5 6 10 7 7 7 7 7 7 7 8 8 7 7 7 9 9 9 9 9 9 9 10 9 10 10 10 11 11 11 12 12 12 12 11 12 12 12 11 11 11 11 10
6 6 7 7 6 7 7 6 7 7 7 7 6 8 9 8 8 8 9 9 8 8 8 9 9 9 10 11 11 12 12 13 13 13 13 12 11 12 11 11 12 11 11
8 8 7 7 7 8 7 7 7 7 7 7 7 7 8 7 8 8 8 8 8 8 8 9 9 10 10 10 10 11 11 11 12 12 12 12 11 11 11 11 12 12 12
7 8 8 7 7 7 6 7 6 7 7 7 7 7 7 7 7 9 8 7 8 8 8 8 9 12 11 12 11 11 11 12 11 11 14 11 11 13 11 13 12 14 11
7 7 7 6 7 6 7 6 6 6 6 6 6 6 6 7 7 8 8 7 7 8 9 9 9 12 14 17 18 20 17 18 15 14 10 13 14 17 13 12 14 13 15
7 7 6 6 6 6 6 6 5 5 6 5 5 6 6 6 7 7 7 8 8 8 9 8 11 15 16 13 17 18 18 19 17 17 11 11 12 12 12 13 19 13 15
Wind_Direction
101 107 97 102 102 100 96 94 96 96 101 86 76 70 55 46 35 75 65 32 34 28 21 18 9 359 360 6 326 321 305 307 295 308 311 310 312 315 306 307 304 306 306
108 98 97 97 92 92 93 100 106 101 96 89 78 80 80 63 45 43 38 21 29 21 14 13 9 13 11 340 332 321 325 322 311 305 307 312 313 314 309 309 311 306 304
97 97 94 88 91 90 91 97 102 94 80 77 80 70 55 43 38 33 30 32 25 19 17 18 28 9 358 342 337 334 324 313 307 299 302 308 308 315 316 313 310 312 309
97 90 89 89 90 93 94 89 84 83 81 73 65 66 59 50 40 29 38 36 29 31 28 20 20 10 350 336 336 327 320 313 309 307 310 311 317 315 303 312 304 309 310
96 92 89 95 94 95 90 86 86 85 84 80 76 62 56 47 31 35 41 37 37 32 26 18 2 5 355 348 333 323 318 316 318 318 315 311 311 318 316 312 303 308 302
92 90 89 84 88 83 83 87 87 80 69 69 69 68 56 49 32 40 47 43 38 32 22 8 5 4 352 342 337 337 333 321 314 314 310 305 308 309 306 306 307 311 318
95 93 93 97 91 87 91 95 91 80 77 70 64 61 54 38 29 26 36 36 33 22 23 9 8 359 352 342 334 335 339 339 335 320 302 306 304 302 300 301 306 308 309
93 94 96 92 84 80 81 80 76 78 72 69 57 53 53 36 28 24 25 29 27 24 21 14 10 355 356 348 335 342 347 337 346 328 311 303 299 299 301 297 289 295 299
90 91 88 86 85 82 77 74 65 74 66 63 56 49 45 35 21 20 21 23 25 23 16 20 15 3 353 351 349 347 342 347 346 337 329 312 307 311 324 329 331 326 325
84 85 78 78 81 81 82 73 61 62 64 65 58 44 42 33 17 15 22 21 25 24 15 14 13 8 356 353 357 350 345 344 334 333 339 341 344 339 339 344 319 321 327
90 82 77 74 76 75 73 63 66 66 64 51 53 40 37 28 18 20 20 28 26 27 15 9 6 358 353 355 1 357 336 320 338 340 339 341 344 345 347 343 331 312 315
82 80 75 68 75 71 75 64 59 60 63 51 45 36 28 18 23 20 14 19 23 32 17 4 1 352 351 359 4 351 347 353 353 351 349 347 344 340 341 339 333 342 331
83 78 74 71 67 61 69 66 65 56 57 47 44 37 23 17 20 14 12 6 11 31 18 9 5 0 358 8 7 2 358 1 354 354 346 339 333 327 331 348 349 348 357
87 80 79 83 78 71 69 63 68 60 60 56 51 43 29 22 23 17 14 10 18 25 12 14 19 12 14 10 9 7 1 0 354 341 335 334 334 340 352 354 347 348 355
86 84 81 81 80 78 67 69 70 63 68 69 57 48 34 30 16 22 25 22 21 19 14 24 19 17 10 7 6 2 358 358 356 348 346 344 343 343 352 358 358 355 7
89 89 87 85 77 73 80 73 59 77 66 61 50 45 48 37 24 21 34 30 25 17 35 29 19 15 13 2 358 353 358 355 350 343 345 347 344 343 346 353 5 7 6
104 101 92 80 75 75 69 82 89 52 56 52 48 52 51 44 35 24 20 36 38 35 43 27 18 13 6 358 356 355 352 346 340 347 346 345 344 348 350 356 358 8 8
92 88 85 81 79 74 73 69 66 70 64 47 37 47 46 48 38 32 24 31 33 33 34 23 15 10 4 357 354 354 348 349 352 348 347 347 348 353 349 356 357 360 358
96 90 88 84 78 81 78 71 69 68 63 52 39 38 25 36 42 39 35 42 33 26 20 20 13 8 2 357 353 352 351 350 348 348 348 348 348 352 348 356 354 355 356
91 96 82 84 83 77 73 75 74 70 66 57 50 29 24 42 40 36 36 36 34 29 20 16 10 8 4 0 355 353 351 355 353 353 348 347 347 350 349 354 357 358 3
87 83 98 84 84 80 82 78 75 76 74 68 49 39 26 55 48 44 38 35 31 25 21 13 10 9 5 3 1 359 358 354 353 350 348 348 347 350 350 353 359 1 5
100 92 88 91 89 85 85 83 82 81 78 74 60 45 34 49 42 41 40 35 30 27 21 15 13 12 7 5 2 2 359 353 350 349 345 346 348 350 352 360 359 3 3
100 99 94 89 90 90 84 79 76 79 75 69 62 54 47 45 41 36 33 31 27 21 17 17 14 10 9 8 8 7 1 353 346 343 344 349 353 354 356 1 360 1 1
97 101 101 99 98 95 94 94 89 76 76 66 63 57 50 45 40 36 30 25 26 23 21 16 14 15 5 7 5 6 4 355 349 347 351 355 357 357 3 6 4 3 4
104 103 106 114 108 106 105 92 87 81 73 66 61 58 47 43 39 33 29 26 26 26 22 17 14 10 12 11 10 5 360 357 359 354 357 2 5 7 5 7 6 8 10
106 111 113 108 110 117 112 103 94 88 81 70 62 58 50 42 36 31 27 26 22 22 21 18 14 14 12 9 5 359 359 0 0 357 1 8 10 13 7 8 8 9 11